CZ-4 DEB, 26162

Orbit data source: Space-Track

CZ-4 DEB, 26162 is space debris in SSO originally from a launch on Thu, 14 Oct 1999 UTC launched from the Taiyaun Space Center, China (TSC). Debris objects in space refer to the collection of defunct objects orbiting the Earth. Examples of debris include non-operational satellites, rocket bodies, and fragments generated from explosions, collisions, or faulty payload assembly.

Loading next visibility...
Identifier
26162, 1999-057AY
Orbit
SSO
Country
Flag of CNCN / PRC
Related business
Manufacturer
Unknown
Mission
Spacecraft
Bus & Motor
Unknown
Mass
Unknown
Launch date (UTC)
1999-10-14 (26 years ago)
Launch vehicle
Unknown
Launch site
Taiyaun Space Center, China (TSC)
Object type
Payload
Rocket body
Debris
Shape & HBR
Unknown shape, 0.1 m
Radar Cross Section
Medium (>0.1 m² and <1 m²)

Expand to show TLE details & history
Last TLE update: 10 hours ago

TLE from 10 hours ago
0 CZ-4 DEB
1 26162U 99057AY  25304.63351748  .00003731  00000-0  14848-2 0  9999
2 26162  99.1059 358.7159 0253654 263.7318  93.4908 14.13265350310169
Epoch: 2025-10-31T15:12Z
TLE epoch observation values (Epoch: 2025-10-31T15:12:15.910Z)
Latitude
-0.00007°
Longitude
90.47447°
Altitude
866.896 km
Speed
7.411 km/s
True Right ascension
23h 54m 51s
True Declination
0° 00' 00"
Sunlit
Object was in full shadow at epoch
Visualization orbit readout
Latitude
Unknown
Longitude
Unknown
Altitude
Unknown
Speed
Unknown
Apparent Right ascension
Unknown
Apparent Declination
Unknown
Sunlit
N/A
Visualization observer readout
Local Sidereal Time
20:30:50
Azimuth
Unknown
Elevation
Unknown
Doppler factor
Unknown
Orbital elements
Apogee altitude
1,028.631 km
Perigee altitude
662.175 km
Semi-major axis
7,223.54 km
Eccentricity
0.02537
Inclination
99.1059°
RAAN
358.7159°
Arg. of periapsis
263.7318°
True anomaly
96.38525°
Mean anomaly
93.4908°
Eccentric anomaly
94.93873°
Mean motion
3.53523 °/min
Orbital period
101.83 mins
BSTAR
0.0014848
Loading maneuver chart data...
Computing Atmospheric mass density...
Loading historical data...
Loading historical data...
Loading historical data...
Loading historical data...
Loading historical data...
Loading historical data...
Loading historical data...

Documentation

Showing up to 5 results
|